Tracking 19170 objects as of 22-May-2018
HD Live streaming from Space Station
objects crossing your sky now

EUTE 28A (EB 1)

Track EUTE 28A (EB 1) now!
EUTE 28A (EB 1) is classified as:


NORAD ID: 26719
Int'l Code: 2001-011A
Perigee: 35,886.0 km
Apogee: 35,915.6 km
Inclination: 0.3 °
Period: 1,441.6 minutes
Semi major axis: 42271 km
RCS: 12.5012 m2 (large)
Launch date: March 8, 2001
Source: European Telecommunications Satellite Organization (EUTE)
Launch site: FRENCH GUIANA (FRGUI)

Twenty-four channels; Western and Central Europe as far west as Canary Islands.
aabbcc
Your satellite tracking list
Your tracking list is empty




NASA's NSSDC Master Catalog

Two Line Element Set (TLE):
1 26719U 01011A   18142.55955524 -.00000032 +00000-0 +00000-0 0  9990
2 26719 000.2701 084.7178 0003507 279.9370 084.6894 00.99891086062999
Source of the keplerian elements: AFSPC